Location: Fairmont
(43.6520°N, 94.4610°W)
Time: 05:27:47
(UTC-05:00)

Cosmos-2242 - Visible Passes

Search period start: 23 April 2014 00:00
Search period end: 03 May 2014 00:00
Orbit: 598 x 624 km, 82.5° (Epoch: 22 April)

Date Brightness Start Highest point End Pass type
(mag) Time Alt. Az. Time Alt. Az. Time Alt. Az.
23 Apr 5.8 00:24:05 10° NE 00:24:49 12° NE 00:24:49 12° NE visible
23 Apr 5.3 02:00:11 10° NNW 02:01:48 22° NNW 02:01:48 22° NNW visible
24 Apr 5.5 00:38:00 10° NNE 00:39:35 17° NE 00:39:35 17° NE visible
24 Apr 5.4 02:15:19 10° NNW 02:16:34 17° NW 02:16:34 17° NW visible
25 Apr 5.2 00:52:23 10° N 00:54:21 23° NNE 00:54:21 23° NNE visible
25 Apr 5.7 02:30:45 10° NW 02:31:21 13° NW 02:31:21 13° NW visible
26 Apr 5.0 01:07:02 10° N 01:09:08 27° N 01:09:08 27° N visible
26 Apr 5.7 23:46:24 10° NE 23:46:56 11° NE 23:46:56 11° NE visible
27 Apr 5.0 01:21:52 10° NNW 01:23:55 27° NNW 01:23:55 27° NNW visible
27 Apr 5.4 23:59:56 10° NNE 00:01:43 17° NE 00:01:43 17° NE visible
28 Apr 5.2 01:36:53 10° NNW 01:38:42 22° NW 01:38:42 22° NW visible
29 Apr 5.0 00:14:11 10° N 00:16:30 24° NE 00:16:30 24° NE visible
29 Apr 5.5 01:52:10 10° NW 01:53:29 16° NW 01:53:29 16° NW visible
30 Apr 4.7 00:28:44 10° N 00:31:17 32° NNE 00:31:17 32° NNE visible
30 Apr 5.8 02:07:59 10° NW 02:08:17 11° NW 02:08:17 11° NW visible
01 May 4.6 00:43:29 10° N 00:46:05 35° N 00:46:05 35° N visible
01 May 5.2 23:21:52 10° NNE 23:23:54 16° NE 23:23:54 16° NE visible
02 May 4.8 00:58:25 10° NNW 01:00:53 30° NW 01:00:53 30° NW visible
02 May 4.8 23:35:56 10° NNE 23:38:42 24° NE 23:38:42 24° NE visible
